[[{"header":{"parameterUnit":"m.s-1","parameterCategory":1,"la1":30.2991,"la2":30.254,"lo1":-89.0895,"lo2":-89.0444,"dy":0.0017,"dx":0.0017,"nx":28,"ny":28,"refTime":"2024-02-24T03:00:00:Z","depth":0,"parameterNumber":2,"parameterNumberName":"U-component_of_WINDS"},"data":[0,0,0,0,0,0,0,0,0,0,0,0,0,0,0,0,0,0,0,0,0,0,0,0,0,0,0,0,0,0,0,0,0,0,0,0,0,0,0,0,0,0,0,0,0,0,0,0,0,0,0,0,0,0,0,0,0,0,4.1291,4.1291,0,4.126,4.126,4.1259,4.1224,4.1224,4.1223,4.1223,4.119,4.119,4.1189,0,0,0,0,0,0,0,0,0,0,0,0,0,4.1322,4.1322,4.1291,4.1291,4.129,4.126,4.126,4.1259,4.1224,4.1224,4.1223,4.1222,4.119,4.119,4.1189,0,0,0,0,0,0,0,0,0,0,0,0,0,4.1302,4.1322,4.1291,4.1269,4.1267,4.126,4.126,4.1259,4.1224,4.1224,4.1223,4.1222,4.119,4.119,4.1189,4.1201,0,0,4.1188,4.1187,0,0,0,0,0,0,0,0,4.1303,4.1301,4.1273,4.1271,4.1268,4.1245,4.1259,4.124,4.1225,4.1241,4.1223,4.1222,4.1209,4.1207,4.1203,4.12,4.1198,4.1187,4.1187,4.1187,4.1187,0,0,0,0,0,0,0,4.1305,4.1302,4.1279,4.1272,4.127,4.1262,4.1258,4.1255,4.1229,4.1239,4.1236,4.1233,4.1208,4.1203,4.1202,4.1198,4.1187,4.1187,4.1187,4.1186,4.1208,4.1209,0,0,0,0,0,0,4.1309,4.1303,4.128,4.1278,4.1284,4.1262,4.1258,4.1253,4.1229,4.1225,4.1234,4.1232,4.1205,4.1202,4.12,4.1216,4.1187,4.1186,4.1186,4.1207,4.1208,4.1209,0,0,0,0,0,0,4.131,4.1307,4.1281,4.129,4.1286,4.1262,4.1258,4.1253,4.1249,4.1226,4.1221,4.1234,4.1204,4.1201,4.1202,4.1214,4.1186,4.1186,4.1206,4.1207,4.1209,4.1245,0,0,0,0,0,0,4.1311,4.1308,4.1311,4.129,4.1286,4.1283,4.1258,4.1253,4.1248,4.1245,4.1225,4.122,4.1203,4.1203,4.1202,4.1213,4.1185,4.1205,4.1207,4.1208,4.1242,4.1247,4.1251,0,0,0,0,0,4.1312,4.1321,4.1311,4.1309,4.1289,4.1283,4.1281,4.1261,4.1249,4.1253,4.1239,4.1221,4.1213,4.1204,4.1202,4.1213,4.1204,4.1206,4.1208,4.124,4.1246,4.1251,0,0,0,0,0,0,4.1342,4.1318,4.1307,4.1309,4.1299,4.1277,4.1281,4.1267,4.1259,4.1256,4.1232,4.1228,4.1233,4.1223,4.1213,4.1225,4.1206,4.1208,4.1232,4.1237,4.1241,4.1244,4.1185,0,0,0,0,0,4.135,4.1347,4.1325,4.133,4.1325,4.1305,4.1301,4.1287,4.1275,4.1271,4.1256,4.1246,4.1241,4.1238,4.1232,4.1241,4.1238,4.1248,4.1252,4.1256,4.1258,4.1266,4.1271,4.1216,4.1216,4.1216,0,0,4.1364,4.135,4.1349,4.1336,4.1326,4.1325,4.1301,4.1299,4.1299,4.127,4.1271,4.1261,4.1248,4.1254,4.1256,4.1245,4.1273,4.1259,4.1262,4.1262,4.1268,4.1274,4.1278,4.1217,4.1217,4.1217,0,0,4.1389,4.1378,4.1382,4.1374,4.1361,4.1347,4.1349,4.1331,4.1323,4.1324,4.1304,4.1303,4.1295,4.1288,4.1283,4.1312,4.1296,4.1311,4.1333,4.1341,4.1346,4.1349,4.1362,4.1367,4.1312,4.1313,4.1313,0,4.1409,4.1405,4.1386,4.1387,4.1383,4.1359,4.1365,4.1358,4.1343,4.1341,4.133,4.1323,4.1311,4.1317,4.1325,4.1321,4.1324,4.1312,4.1347,4.135,4.1353,4.1365,4.137,4.1315,4.1314,4.1314,4.1314,0,4.1431,4.143,4.1435,4.1423,4.142,4.1423,4.1405,4.1404,4.1392,4.1381,4.1385,4.1372,4.1365,4.1365,4.1352,4.1371,4.1365,4.1351,4.1331,4.1361,4.1372,4.1376,4.1317,4.1317,4.1316,4.1316,0,0,4.1471,4.1453,4.1455,4.1451,4.1437,4.1436,4.144,4.1434,4.1436,4.1427,4.1431,4.1427,4.1416,4.141,4.1397,4.1404,4.1431,4.1389,4.1388,4.1399,4.1454,4.1466,4.1471,4.1421,4.1422,4.1423,4.1456,0,4.1495,4.15,4.1485,4.1495,4.1495,4.1475,4.1479,4.1472,4.1463,4.1463,4.1452,4.1451,4.1434,4.1431,4.1437,4.1427,4.1442,4.1424,4.1426,4.1427,4.1431,4.1476,4.1487,4.152,4.146,4.1461,4.1461,0,4.1522,4.1519,4.1529,4.1519,4.1518,4.1521,4.1518,4.1517,4.151,4.1503,4.15,4.1486,4.1491,4.1473,4.1481,4.1469,4.147,4.1465,4.1466,4.1466,4.1446,4.1479,4.1529,4.1534,4.1467,4.1467,4.1466,0,4.1554,4.1551,4.1557,4.1555,4.1542,4.1546,4.1541,4.1533,4.1532,4.1529,4.1529,4.1526,4.1525,4.1524,4.1511,4.1499,4.1522,4.1502,4.1518,4.1519,4.1523,4.1523,4.1575,4.1522,4.1522,4.1522,4.1522,0,4.1582,4.1589,4.1572,4.1576,4.1585,4.1569,4.1579,4.1572,4.1566,4.157,4.1552,4.1556,4.1538,4.1541,4.153,4.1541,4.154,4.1536,4.1533,4.1537,4.1538,4.1537,4.1535,4.1523,4.1523,4.1523,4.1523,0,4.1617,4.1605,4.1612,4.1601,4.1599,4.1606,4.1598,4.1602,4.1594,4.1599,4.16,4.1586,4.1589,4.1576,4.1576,4.1569,4.1586,4.1578,4.1588,4.1586,4.1604,4.1603,4.1658,4.1665,4.1607,4.1607,4.1608,0,4.1636,4.1641,4.1633,4.1635,4.1632,4.1634,4.1635,4.1621,4.1622,4.1617,4.1623,4.1625,4.1626,4.1632,4.1623,4.1624,4.1617,4.1637,4.1617,4.1623,4.162,4.162,4.1622,4.1641,4.1641,4.1642,4.1642,0,4.1671,4.1667,4.1668,4.1669,4.167,4.1669,4.1668,4.167,4.1656,4.1659,4.1662,4.1663,4.1666,4.1669,4.1669,4.1665,4.1652,4.1649,4.1653,4.1658,4.1664,4.1663,4.16,4.1648,4.1647,4.1647,4.1646,4.1646,4.17,4.1706,4.1702,4.1705,4.1703,4.1703,4.1708,4.1702,4.1705,4.1707,4.1699,4.1705,4.1702,4.1702,4.17,4.1706,4.1696,4.1702,4.1703,4.1705,4.1709,4.1664,4.1705,4.1705,4.1705,4.1705,4.1705,0,4.1736,4.1734,4.1737,4.1737,4.1741,4.173,4.1729,4.1733,4.1739,4.1738,4.174,4.1747,4.1751,4.1745,4.1748,4.1754,4.1749,4.1756,4.1756,4.1756,4.1716,4.1713,4.1761,4.1761,4.1761,4.1761,4.1761,4.1761,4.1755,4.1765,4.1761,4.1772,4.177,4.1777,4.1778,4.1779,4.1779,4.1787,4.1791,4.1788,4.1785,4.1789,4.1794,4.1792,4.1795,4.1804,4.1801,4.1763,4.1758,4.1753,4.175,4.1805,4.1805,4.184,4.184,4.1841]},{"header":{"parameterUnit":"m.s-1","parameterCategory":1,"la1":30.2991,"la2":30.254,"lo1":-89.0895,"lo2":-89.0444,"dy":0.0017,"dx":0.0017,"nx":28,"ny":28,"refTime":"2024-02-24T03:00:00:Z","depth":0,"parameterNumber":3,"parameterNumberName":"V-component_of_WINDS"},"data":[0,0,0,0,0,0,0,0,0,0,0,0,0,0,0,0,0,0,0,0,0,0,0,0,0,0,0,0,0,0,0,0,0,0,0,0,0,0,0,0,0,0,0,0,0,0,0,0,0,0,0,0,0,0,0,0,0,0,0.3233,0.3236,0,0.3558,0.3562,0.3565,0.3562,0.3557,0.3553,0.3549,0.3892,0.3904,0.3917,0,0,0,0,0,0,0,0,0,0,0,0,0,0.2617,0.2629,0.3233,0.3237,0.3241,0.3557,0.3562,0.3566,0.3562,0.3557,0.3552,0.3547,0.3887,0.3903,0.3919,0,0,0,0,0,0,0,0,0,0,0,0,0,0.2908,0.2632,0.3232,0.3277,0.3284,0.3556,0.3562,0.3568,0.3563,0.3557,0.355,0.3544,0.3882,0.3901,0.3921,0.4173,0,0,0.3981,0.399,0,0,0,0,0,0,0,0,0.2891,0.2931,0.3266,0.3274,0.3283,0.3512,0.3471,0.3771,0.3565,0.3458,0.3549,0.3541,0.3771,0.38,0.3875,0.4189,0.4204,0.3983,0.3995,0.4003,0.4009,0,0,0,0,0,0,0,0.2871,0.2917,0.3362,0.3271,0.3281,0.3283,0.3318,0.3527,0.3648,0.3466,0.3467,0.3505,0.3775,0.3856,0.3883,0.4209,0.3982,0.4,0.4012,0.402,0.4747,0.4754,0,0,0,0,0,0,0.2841,0.29,0.3351,0.3371,0.3067,0.33,0.3338,0.3445,0.3645,0.3669,0.351,0.3504,0.3826,0.386,0.3895,0.4205,0.4003,0.4022,0.4033,0.474,0.4749,0.4757,0,0,0,0,0,0,0.2827,0.2881,0.3338,0.3136,0.3194,0.3317,0.3438,0.3455,0.3537,0.3678,0.37,0.3571,0.3822,0.3868,0.4104,0.4216,0.4031,0.4049,0.4731,0.4742,0.4753,0.4825,0,0,0,0,0,0,0.281,0.2876,0.2971,0.3138,0.3205,0.3539,0.3445,0.3466,0.357,0.3564,0.3741,0.3764,0.382,0.4074,0.4123,0.424,0.4064,0.4721,0.4736,0.4749,0.4813,0.4837,0.4857,0,0,0,0,0,0.2788,0.2981,0.2976,0.3031,0.3326,0.3545,0.3584,0.3642,0.3579,0.3677,0.3767,0.3758,0.4195,0.4098,0.4154,0.4278,0.4715,0.4732,0.4748,0.4803,0.4832,0.4857,0,0,0,0,0,0,0.2828,0.3003,0.3,0.3252,0.3383,0.3544,0.3669,0.3671,0.3825,0.3814,0.3882,0.3923,0.4158,0.4242,0.413,0.4533,0.4448,0.4476,0.447,0.4499,0.4521,0.4497,0.408,0,0,0,0,0,0.2866,0.3026,0.3171,0.338,0.3445,0.3546,0.3644,0.3677,0.3817,0.3873,0.3981,0.412,0.4288,0.4398,0.4561,0.4824,0.4863,0.4937,0.4959,0.4977,0.5002,0.5148,0.5182,0.4812,0.4812,0.4811,0,0,0.2947,0.3062,0.316,0.3391,0.3496,0.3663,0.3593,0.3773,0.3898,0.3902,0.413,0.4214,0.4374,0.4624,0.474,0.4701,0.5112,0.4998,0.5011,0.5027,0.5168,0.5203,0.5234,0.4823,0.4821,0.4819,0,0,0.3179,0.3281,0.3466,0.3572,0.3731,0.3797,0.3841,0.4002,0.4056,0.4286,0.4292,0.4443,0.4732,0.4845,0.4941,0.5214,0.5212,0.5266,0.5383,0.5525,0.5554,0.558,0.5679,0.5713,0.5289,0.529,0.529,0,0.326,0.3509,0.3562,0.3742,0.3844,0.3851,0.404,0.4142,0.4348,0.4419,0.4372,0.4734,0.4842,0.5119,0.5185,0.5262,0.5316,0.5247,0.5545,0.5572,0.5597,0.5692,0.5729,0.5295,0.5294,0.5294,0.5293,0,0.3601,0.3774,0.3904,0.4099,0.4216,0.44,0.4483,0.4596,0.4619,0.469,0.4924,0.5053,0.5242,0.531,0.5336,0.5592,0.5563,0.5529,0.5445,0.5637,0.5727,0.5764,0.5303,0.5301,0.5299,0.5298,0,0,0.387,0.4089,0.4137,0.4225,0.44,0.4536,0.4721,0.4903,0.4998,0.514,0.5298,0.5541,0.5511,0.5619,0.5657,0.5781,0.599,0.5733,0.5738,0.5777,0.6282,0.6307,0.6348,0.5989,0.5996,0.6002,0.6269,0,0.4122,0.4446,0.4499,0.4785,0.4946,0.4954,0.5115,0.5242,0.5313,0.5462,0.5542,0.5713,0.566,0.5725,0.5848,0.5939,0.6093,0.592,0.614,0.6147,0.61,0.6395,0.6422,0.6668,0.6304,0.631,0.6315,0,0.4459,0.4605,0.4906,0.5059,0.5129,0.5272,0.5443,0.5584,0.5728,0.5772,0.5891,0.5914,0.6109,0.6014,0.6284,0.6165,0.6258,0.6316,0.6327,0.6351,0.6243,0.6428,0.6747,0.6784,0.6371,0.6366,0.6362,0,0.4626,0.4898,0.5114,0.5189,0.5372,0.5473,0.5555,0.5692,0.5798,0.5948,0.6017,0.6189,0.6284,0.6417,0.6487,0.6411,0.6753,0.6663,0.6796,0.6795,0.6869,0.6864,0.7209,0.6927,0.6926,0.6926,0.6925,0,0.4902,0.5086,0.5191,0.5324,0.5531,0.5591,0.5795,0.5875,0.5997,0.6147,0.6166,0.6307,0.6389,0.6543,0.6599,0.6815,0.6858,0.69,0.6913,0.6899,0.6894,0.6962,0.6947,0.6935,0.6933,0.6931,0.693,0,0.5124,0.5201,0.5437,0.559,0.5633,0.5779,0.5911,0.6042,0.6111,0.6301,0.635,0.646,0.6642,0.6724,0.695,0.6987,0.7234,0.7234,0.7184,0.7189,0.7317,0.7305,0.772,0.7778,0.7456,0.7459,0.7461,0,0.5296,0.5437,0.5604,0.5704,0.5788,0.595,0.6056,0.6121,0.6232,0.6406,0.6517,0.6698,0.6847,0.7138,0.7241,0.7413,0.7419,0.7552,0.7445,0.7427,0.7423,0.7414,0.7429,0.7572,0.7576,0.7578,0.758,0,0.5593,0.5623,0.5775,0.594,0.6066,0.62,0.6332,0.6414,0.65,0.6624,0.6808,0.6923,0.7152,0.7333,0.7512,0.7599,0.7606,0.7613,0.7653,0.7641,0.7606,0.7628,0.7239,0.7604,0.7601,0.76,0.7598,0.7597,0.5796,0.5922,0.6059,0.6227,0.6332,0.6454,0.6584,0.6668,0.6822,0.7011,0.7041,0.7238,0.7379,0.7619,0.7713,0.787,0.7838,0.7896,0.7911,0.7924,0.7932,0.758,0.7903,0.7902,0.7902,0.7901,0.7901,0,0.6095,0.6182,0.6336,0.6518,0.6651,0.664,0.6786,0.6898,0.707,0.72,0.7345,0.7557,0.7733,0.7848,0.8025,0.8129,0.8136,0.8174,0.8168,0.8188,0.795,0.7898,0.8165,0.8165,0.8164,0.8164,0.8164,0.8164,0.6266,0.6478,0.6525,0.679,0.6878,0.7068,0.7152,0.7266,0.7369,0.7604,0.7748,0.7821,0.7946,0.8132,0.8293,0.8323,0.8388,0.8427,0.8455,0.8232,0.8204,0.8178,0.813,0.844,0.8441,0.868,0.8682,0.8684]}]]